Time,TemperatureF,DewpointF,PressureIn,WindDirection,WindDirectionDegrees,WindSpeedMPH,WindSpeedGustMPH,Humidity,HourlyPrecipIn,Conditions,Clouds,dailyrainin,SoftwareType,DateUTC
2013-03-04 00:01:00,50.0,46.0,29.98,SSW,202,0.0,0.0,86,0.00,,,0.00,,2013-03-04 08:01:00,
2013-03-04 00:11:00,50.0,46.0,29.98,SSW,202,0.0,0.0,86,0.00,,,0.00,,2013-03-04 08:11:00,
2013-03-04 00:21:00,50.0,46.0,29.98,SSW,202,0.0,1.0,86,0.00,,,0.00,,2013-03-04 08:21:00,
2013-03-04 00:31:00,49.0,45.0,29.98,SSW,202,0.0,0.0,86,0.00,,,0.00,,2013-03-04 08:31:00,
2013-03-04 00:41:00,49.0,45.0,29.98,SSW,202,0.0,0.0,86,0.00,,,0.00,,2013-03-04 08:41:00,
2013-03-04 00:52:00,49.0,45.0,29.99,SSW,202,0.0,0.0,86,0.00,,,0.00,,2013-03-04 08:52:00,
2013-03-04 01:01:00,48.0,44.0,29.99,SSW,202,0.0,0.0,87,0.00,,,0.00,,2013-03-04 09:01:00,
2013-03-04 01:11:00,48.0,44.0,29.99,SSW,202,0.0,0.0,87,0.00,,,0.00,,2013-03-04 09:11:00,
2013-03-04 01:21:00,48.0,44.0,29.99,SSW,202,0.0,0.0,87,0.00,,,0.00,,2013-03-04 09:21:00,
2013-03-04 01:31:00,48.0,45.0,30.00,SSW,202,0.0,0.0,88,0.00,,,0.00,,2013-03-04 09:31:00,
2013-03-04 01:42:00,48.0,45.0,30.00,SSW,202,0.0,0.0,88,0.00,,,0.00,,2013-03-04 09:42:00,
2013-03-04 01:51:00,48.0,45.0,30.01,SSW,202,0.0,0.0,88,0.00,,,0.00,,2013-03-04 09:51:00,
2013-03-04 02:01:00,47.0,44.0,30.01,SSW,202,0.0,0.0,88,0.00,,,0.00,,2013-03-04 10:01:00,
2013-03-04 02:11:00,47.0,44.0,30.01,SSW,202,0.0,0.0,88,0.00,,,0.00,,2013-03-04 10:11:00,
2013-03-04 02:21:00,47.0,44.0,30.01,SSW,202,0.0,0.0,88,0.00,,,0.00,,2013-03-04 10:21:00,
2013-03-04 02:31:00,47.0,44.0,30.01,SSW,202,0.0,0.0,88,0.00,,,0.00,,2013-03-04 10:31:00,
2013-03-04 02:41:00,47.0,44.0,30.01,SSW,202,0.0,0.0,88,0.00,,,0.00,,2013-03-04 10:41:00,
2013-03-04 02:52:00,47.0,44.0,30.01,SSW,202,0.0,0.0,89,0.00,,,0.00,,2013-03-04 10:52:00,
2013-03-04 03:01:00,47.0,44.0,30.00,SSW,202,0.0,1.0,89,0.00,,,0.00,,2013-03-04 11:01:00,
2013-03-04 03:11:00,47.0,44.0,30.00,SSW,202,0.0,1.0,89,0.00,,,0.00,,2013-03-04 11:11:00,
2013-03-04 03:21:00,47.0,44.0,30.00,SSW,202,0.0,0.0,89,0.00,,,0.00,,2013-03-04 11:21:00,
2013-03-04 03:31:00,46.0,43.0,30.00,SSW,202,0.0,0.0,89,0.00,,,0.00,,2013-03-04 11:31:00,
2013-03-04 03:41:00,46.0,43.0,30.00,SSW,202,0.0,0.0,89,0.00,,,0.00,,2013-03-04 11:41:00,
2013-03-04 03:52:00,46.0,43.0,30.01,SSW,202,0.0,0.0,89,0.00,,,0.00,,2013-03-04 11:52:00,
2013-03-04 04:01:00,45.0,42.0,30.01,SSW,202,0.0,0.0,89,0.00,,,0.00,,2013-03-04 12:01:00,
2013-03-04 04:11:00,45.0,42.0,30.01,SSW,202,0.0,0.0,89,0.00,,,0.00,,2013-03-04 12:11:00,
2013-03-04 04:22:00,45.0,42.0,30.01,SSW,202,0.0,0.0,89,0.00,,,0.00,,2013-03-04 12:22:00,
2013-03-04 04:32:00,45.0,42.0,30.01,SSW,202,0.0,0.0,89,0.00,,,0.00,,2013-03-04 12:32:00,
2013-03-04 04:42:00,45.0,42.0,30.01,SSW,202,0.0,0.0,89,0.00,,,0.00,,2013-03-04 12:42:00,
2013-03-04 04:52:00,45.0,42.0,30.01,SSW,202,0.0,0.0,89,0.00,,,0.00,,2013-03-04 12:52:00,
2013-03-04 05:02:00,44.0,41.0,30.01,SSW,202,0.0,0.0,89,0.00,,,0.00,,2013-03-04 13:02:00,
2013-03-04 05:11:00,44.0,41.0,30.01,SSW,202,0.0,0.0,89,0.00,,,0.00,,2013-03-04 13:11:00,
2013-03-04 05:21:00,44.0,41.0,30.01,SSW,202,0.0,0.0,89,0.00,,,0.00,,2013-03-04 13:21:00,
2013-03-04 05:31:00,44.0,41.0,30.02,SSW,202,0.0,0.0,90,0.00,,,0.00,,2013-03-04 13:31:00,
2013-03-04 05:41:00,44.0,41.0,30.02,SSW,202,0.0,0.0,90,0.00,,,0.00,,2013-03-04 13:41:00,
2013-03-04 05:51:00,44.0,41.0,30.02,SSW,202,0.0,0.0,89,0.00,,,0.00,,2013-03-04 13:51:00,
2013-03-04 06:01:00,43.0,40.0,30.03,SSW,202,0.0,0.0,89,0.00,,,0.00,,2013-03-04 14:01:00,
2013-03-04 06:11:00,43.0,40.0,30.03,SSW,202,0.0,0.0,89,0.00,,,0.00,,2013-03-04 14:11:00,
2013-03-04 06:21:00,43.0,40.0,30.02,SSW,202,0.0,0.0,90,0.00,,,0.00,,2013-03-04 14:21:00,
2013-03-04 06:32:00,44.0,41.0,30.03,SSW,202,0.0,0.0,90,0.00,,,0.00,,2013-03-04 14:32:00,
2013-03-04 06:41:00,44.0,41.0,30.03,SSW,202,0.0,0.0,90,0.00,,,0.00,,2013-03-04 14:41:00,
2013-03-04 06:52:00,43.0,40.0,30.03,SSW,202,0.0,0.0,90,0.00,,,0.00,,2013-03-04 14:52:00,
2013-03-04 07:01:00,43.0,40.0,30.03,SSW,202,0.0,0.0,90,0.00,,,0.00,,2013-03-04 15:01:00,
2013-03-04 07:11:00,43.0,40.0,30.03,SSW,202,0.0,0.0,90,0.00,,,0.00,,2013-03-04 15:11:00,
2013-03-04 07:21:00,43.0,41.0,30.04,SSW,202,0.0,0.0,91,0.00,,,0.00,,2013-03-04 15:21:00,
2013-03-04 07:31:00,44.0,42.0,30.06,SSW,202,0.0,0.0,91,0.00,,,0.00,,2013-03-04 15:31:00,
2013-03-04 07:41:00,44.0,42.0,30.06,SSW,202,0.0,0.0,91,0.00,,,0.00,,2013-03-04 15:41:00,
2013-03-04 07:51:00,47.0,45.0,30.06,SSW,202,0.0,0.0,92,0.00,,,0.00,,2013-03-04 15:51:00,
2013-03-04 08:02:00,49.0,47.0,30.06,SSW,202,0.0,1.0,92,0.00,,,0.00,,2013-03-04 16:02:00,
2013-03-04 08:11:00,49.0,47.0,30.06,SSW,202,0.0,1.0,92,0.00,,,0.00,,2013-03-04 16:11:00,
2013-03-04 08:21:00,51.0,48.0,30.06,SSW,194,0.0,1.0,90,0.00,,,0.00,,2013-03-04 16:21:00,
2013-03-04 08:31:00,52.0,48.0,30.06,ESE,105,0.0,5.0,85,0.00,,,0.00,,2013-03-04 16:31:00,
2013-03-04 08:41:00,52.0,48.0,30.06,ESE,105,0.0,5.0,85,0.00,,,0.00,,2013-03-04 16:41:00,
2013-03-04 08:52:00,54.0,49.0,30.06,SE,136,0.0,1.0,82,0.00,,,0.00,,2013-03-04 16:52:00,
2013-03-04 09:02:00,56.0,49.0,30.07,SE,138,0.0,3.0,76,0.00,,,0.00,,2013-03-04 17:02:00,
2013-03-04 09:21:00,57.0,49.0,30.07,SSW,208,0.0,1.0,75,0.00,,,0.00,,2013-03-04 17:21:00,
2013-03-04 09:31:00,58.0,51.0,30.07,WSW,252,0.0,4.0,77,0.00,,,0.00,,2013-03-04 17:31:00,
2013-03-04 09:42:00,58.0,51.0,30.07,WSW,252,0.0,4.0,77,0.00,,,0.00,,2013-03-04 17:42:00,
2013-03-04 09:52:00,59.0,51.0,30.08,West,272,1.0,5.0,76,0.00,,,0.00,,2013-03-04 17:52:00,
2013-03-04 10:01:00,59.0,51.0,30.08,West,280,1.0,6.0,75,0.00,,,0.00,,2013-03-04 18:01:00,
2013-03-04 10:11:00,59.0,51.0,30.08,West,280,1.0,6.0,75,0.00,,,0.00,,2013-03-04 18:11:00,
2013-03-04 10:21:00,61.0,52.0,30.07,South,187,0.0,7.0,73,0.00,,,0.00,,2013-03-04 18:21:00,
2013-03-04 10:32:00,61.0,52.0,30.07,West,269,2.0,6.0,72,0.00,,,0.00,,2013-03-04 18:32:00,
2013-03-04 10:42:00,61.0,52.0,30.07,West,269,2.0,6.0,72,0.00,,,0.00,,2013-03-04 18:42:00,
2013-03-04 10:52:00,62.0,52.0,30.06,SSW,203,0.0,5.0,69,0.00,,,0.00,,2013-03-04 18:52:00,
2013-03-04 11:01:00,63.0,52.0,30.06,WSW,243,1.0,6.0,67,0.00,,,0.00,,2013-03-04 19:01:00,
2013-03-04 11:11:00,63.0,52.0,30.06,WSW,243,1.0,6.0,67,0.00,,,0.00,,2013-03-04 19:11:00,
2013-03-04 11:21:00,64.0,52.0,30.06,SW,221,2.0,8.0,65,0.00,,,0.00,,2013-03-04 19:21:00,
2013-03-04 11:31:00,65.0,52.0,30.06,SW,234,2.0,6.0,62,0.00,,,0.00,,2013-03-04 19:31:00,
2013-03-04 11:42:00,65.0,52.0,30.06,SW,234,2.0,6.0,62,0.00,,,0.00,,2013-03-04 19:42:00,
2013-03-04 11:51:00,65.0,50.0,30.06,SW,215,4.0,7.0,59,0.00,,,0.00,,2013-03-04 19:51:00,
2013-03-04 12:01:00,66.0,51.0,30.06,SSW,200,3.0,7.0,59,0.00,,,0.00,,2013-03-04 20:01:00,
2013-03-04 12:11:00,66.0,50.0,30.05,SW,217,4.0,11.0,57,0.00,,,0.00,,2013-03-04 20:11:00,
2013-03-04 12:21:00,66.0,50.0,30.05,SW,217,4.0,11.0,57,0.00,,,0.00,,2013-03-04 20:21:00,
2013-03-04 12:32:00,67.0,50.0,30.05,SW,232,5.0,11.0,54,0.00,,,0.00,,2013-03-04 20:32:00,
2013-03-04 12:41:00,67.0,50.0,30.05,SW,232,5.0,11.0,54,0.00,,,0.00,,2013-03-04 20:41:00,
2013-03-04 12:52:00,66.0,50.0,30.04,SSW,213,3.0,9.0,57,0.00,,,0.00,,2013-03-04 20:52:00,
2013-03-04 13:01:00,67.0,50.0,30.03,SW,220,4.0,9.0,54,0.00,,,0.00,,2013-03-04 21:01:00,
2013-03-04 13:11:00,67.0,50.0,30.03,SW,220,4.0,9.0,54,0.00,,,0.00,,2013-03-04 21:11:00,
2013-03-04 13:21:00,67.0,50.0,30.03,SW,220,4.0,9.0,54,0.00,,,0.00,,2013-03-04 21:21:00,
2013-03-04 13:31:00,67.0,50.0,30.02,SW,216,5.0,11.0,55,0.00,,,0.00,,2013-03-04 21:31:00,
2013-03-04 13:43:00,67.0,50.0,30.02,SW,216,5.0,11.0,55,0.00,,,0.00,,2013-03-04 21:43:00,
2013-03-04 13:52:00,67.0,51.0,30.02,SW,229,3.0,11.0,56,0.00,,,0.00,,2013-03-04 21:52:00,
2013-03-04 14:01:00,66.0,50.0,30.01,SW,223,4.0,11.0,57,0.00,,,0.00,,2013-03-04 22:01:00,
2013-03-04 14:11:00,66.0,50.0,30.01,SW,223,4.0,11.0,57,0.00,,,0.00,,2013-03-04 22:11:00,
2013-03-04 14:21:00,65.0,50.0,30.01,SSW,197,3.0,10.0,58,0.00,,,0.00,,2013-03-04 22:21:00,
2013-03-04 14:31:00,65.0,49.0,30.01,SW,232,3.0,11.0,57,0.00,,,0.00,,2013-03-04 22:31:00,
2013-03-04 14:42:00,65.0,49.0,30.01,SW,232,3.0,11.0,57,0.00,,,0.00,,2013-03-04 22:42:00,
2013-03-04 14:51:00,66.0,50.0,30.01,SW,217,4.0,8.0,56,0.00,,,0.00,,2013-03-04 22:51:00,
2013-03-04 15:01:00,66.0,51.0,30.01,SSW,207,3.0,9.0,58,0.00,,,0.00,,2013-03-04 23:01:00,
2013-03-04 15:11:00,66.0,51.0,30.01,SSW,207,3.0,9.0,58,0.00,,,0.00,,2013-03-04 23:11:00,
2013-03-04 15:21:00,66.0,51.0,30.01,SSW,207,3.0,9.0,58,0.00,,,0.00,,2013-03-04 23:21:00,
2013-03-04 15:31:00,66.0,50.0,30.01,SW,222,3.0,8.0,57,0.00,,,0.00,,2013-03-04 23:31:00,
2013-03-04 15:42:00,66.0,50.0,30.01,SW,222,3.0,8.0,57,0.00,,,0.00,,2013-03-04 23:42:00,
2013-03-04 15:52:00,66.0,49.0,30.01,West,277,1.0,7.0,55,0.00,,,0.00,,2013-03-04 23:52:00,
2013-03-04 16:01:00,67.0,50.0,30.00,WSW,238,1.0,8.0,55,0.00,,,0.00,,2013-03-05 00:01:00,
2013-03-04 16:11:00,67.0,50.0,30.00,WSW,238,1.0,8.0,55,0.00,,,0.00,,2013-03-05 00:11:00,
2013-03-04 16:21:00,67.0,50.0,30.00,SW,232,2.0,6.0,55,0.00,,,0.00,,2013-03-05 00:21:00,
2013-03-04 16:32:00,67.0,50.0,30.00,SW,232,2.0,6.0,55,0.00,,,0.00,,2013-03-05 00:32:00,
2013-03-04 16:41:00,67.0,50.0,30.00,SW,232,2.0,6.0,55,0.00,,,0.00,,2013-03-05 00:41:00,
2013-03-04 16:51:00,66.0,50.0,30.00,SW,229,2.0,7.0,57,0.00,,,0.00,,2013-03-05 00:51:00,
2013-03-04 17:01:00,65.0,50.0,30.00,SW,223,2.0,10.0,59,0.00,,,0.00,,2013-03-05 01:01:00,
2013-03-04 17:11:00,65.0,50.0,30.00,SW,223,2.0,10.0,59,0.00,,,0.00,,2013-03-05 01:11:00,
2013-03-04 17:21:00,64.0,49.0,30.01,SSW,213,3.0,7.0,59,0.00,,,0.00,,2013-03-05 01:21:00,
2013-03-04 17:32:00,63.0,50.0,30.02,SSW,202,4.0,8.0,62,0.00,,,0.00,,2013-03-05 01:32:00,
2013-03-04 17:41:00,63.0,50.0,30.02,SSW,202,4.0,8.0,62,0.00,,,0.00,,2013-03-05 01:41:00,
2013-03-04 17:51:00,61.0,50.0,30.03,SSW,206,2.0,9.0,67,0.00,,,0.00,,2013-03-05 01:51:00,
2013-03-04 18:01:00,60.0,51.0,30.03,SSW,194,2.0,8.0,71,0.00,,,0.00,,2013-03-05 02:01:00,
2013-03-04 18:11:00,60.0,51.0,30.03,SSW,194,2.0,8.0,71,0.00,,,0.00,,2013-03-05 02:11:00,
2013-03-04 18:21:00,58.0,50.0,30.03,SW,227,0.0,6.0,75,0.00,,,0.00,,2013-03-05 02:21:00,
2013-03-04 18:32:00,57.0,51.0,30.04,West,265,0.0,4.0,79,0.00,,,0.00,,2013-03-05 02:32:00,
2013-03-04 18:41:00,57.0,51.0,30.04,West,265,0.0,4.0,79,0.00,,,0.00,,2013-03-05 02:41:00,
2013-03-04 18:52:00,56.0,50.0,30.04,WNW,288,1.0,3.0,79,0.00,,,0.00,,2013-03-05 02:52:00,
2013-03-04 19:01:00,56.0,50.0,30.04,WNW,289,0.0,2.0,79,0.00,,,0.00,,2013-03-05 03:01:00,
2013-03-04 19:11:00,56.0,50.0,30.04,WNW,289,0.0,2.0,79,0.00,,,0.00,,2013-03-05 03:11:00,
2013-03-04 19:21:00,56.0,50.0,30.05,WNW,290,0.0,3.0,79,0.00,,,0.00,,2013-03-05 03:21:00,
2013-03-04 19:31:00,55.0,49.0,30.05,WNW,290,0.0,1.0,79,0.00,,,0.00,,2013-03-05 03:31:00,
2013-03-04 19:41:00,55.0,49.0,30.05,WNW,290,0.0,1.0,79,0.00,,,0.00,,2013-03-05 03:41:00,
2013-03-04 19:51:00,54.0,48.0,30.05,WNW,290,0.0,0.0,79,0.00,,,0.00,,2013-03-05 03:51:00,
2013-03-04 20:01:00,53.0,47.0,30.06,WNW,290,0.0,0.0,80,0.00,,,0.00,,2013-03-05 04:01:00,
2013-03-04 20:11:00,53.0,47.0,30.06,WNW,290,0.0,0.0,80,0.00,,,0.00,,2013-03-05 04:11:00,
2013-03-04 20:21:00,53.0,48.0,30.06,WNW,290,0.0,0.0,83,0.00,,,0.00,,2013-03-05 04:21:00,
2013-03-04 20:31:00,52.0,47.0,30.06,WNW,290,0.0,0.0,83,0.00,,,0.00,,2013-03-05 04:31:00,
2013-03-04 20:41:00,52.0,47.0,30.06,WNW,290,0.0,0.0,83,0.00,,,0.00,,2013-03-05 04:41:00,
2013-03-04 20:51:00,51.0,46.0,30.07,WNW,290,0.0,0.0,83,0.00,,,0.00,,2013-03-05 04:51:00,
2013-03-04 21:01:00,50.0,46.0,30.07,WNW,290,0.0,0.0,85,0.00,,,0.00,,2013-03-05 05:01:00,
2013-03-04 21:11:00,50.0,46.0,30.07,WNW,290,0.0,0.0,85,0.00,,,0.00,,2013-03-05 05:11:00,
2013-03-04 21:22:00,50.0,45.0,30.06,WNW,290,0.0,0.0,84,0.00,,,0.00,,2013-03-05 05:22:00,
2013-03-04 21:31:00,49.0,45.0,30.06,WNW,290,0.0,0.0,85,0.00,,,0.00,,2013-03-05 05:31:00,
2013-03-04 21:41:00,49.0,45.0,30.06,WNW,290,0.0,0.0,85,0.00,,,0.00,,2013-03-05 05:41:00,
2013-03-04 21:52:00,50.0,46.0,30.06,WNW,292,0.0,2.0,86,0.00,,,0.00,,2013-03-05 05:52:00,
2013-03-04 22:01:00,50.0,46.0,30.07,WNW,292,0.0,0.0,87,0.00,,,0.00,,2013-03-05 06:01:00,
2013-03-04 22:11:00,50.0,46.0,30.07,WNW,292,0.0,0.0,87,0.00,,,0.00,,2013-03-05 06:11:00,
2013-03-04 22:22:00,51.0,47.0,30.07,WNW,292,0.0,0.0,87,0.00,,,0.00,,2013-03-05 06:22:00,
2013-03-04 22:31:00,51.0,47.0,30.07,WNW,292,0.0,0.0,87,0.00,,,0.00,,2013-03-05 06:31:00,
2013-03-04 22:41:00,51.0,47.0,30.07,WNW,292,0.0,0.0,87,0.00,,,0.00,,2013-03-05 06:41:00,
2013-03-04 22:52:00,50.0,46.0,30.07,WNW,292,0.0,0.0,86,0.00,,,0.00,,2013-03-05 06:52:00,
2013-03-04 23:01:00,50.0,46.0,30.07,WNW,292,0.0,0.0,86,0.00,,,0.00,,2013-03-05 07:01:00,
2013-03-04 23:11:00,50.0,46.0,30.07,WNW,292,0.0,0.0,86,0.00,,,0.00,,2013-03-05 07:11:00,
2013-03-04 23:21:00,50.0,46.0,30.07,WNW,292,0.0,2.0,87,0.00,,,0.00,,2013-03-05 07:21:00,
2013-03-04 23:31:00,50.0,46.0,30.07,WNW,292,0.0,0.0,87,0.00,,,0.00,,2013-03-05 07:31:00,
2013-03-04 23:41:00,50.0,46.0,30.07,WNW,292,0.0,0.0,87,0.00,,,0.00,,2013-03-05 07:41:00,
2013-03-04 23:51:00,49.0,45.0,30.07,WNW,292,0.0,0.0,86,0.00,,,0.00,,2013-03-05 07:51:00,